This is the latest recevied weather packets stored in our database for station/object N3WGC-14. If no packets are shown the sender has not sent any weather packets the latest 10 day(s).
| Time | Temp. | Humidity | Pressure | Rain* | Wind** | Luminosity | Snow |
|---|---|---|---|---|---|---|---|
| 1787663283 | 22.22° C | 75% | 1018.3 hPa | 0 mm | - | - | - |
| 1787662983 | 22.22° C | 77% | 1018.2 hPa | 0 mm | - | - | - |
| 1787662683 | 22.78° C | 74% | 1018.3 hPa | 0 mm | - | - | - |
| 1787662383 | 22.78° C | 74% | 1018.2 hPa | 0 mm | - | - | - |
| 1787662082 | 22.22° C | 76% | 1018.2 hPa | 0 mm | - | - | - |
| 1787661782 | 22.78° C | 78% | 1018.2 hPa | 0 mm | - | - | - |
| 1787661482 | 22.78° C | 76% | 1018.3 hPa | 0 mm | - | - | - |
| 1787661182 | 22.22° C | 76% | 1018.2 hPa | 0 mm | - | - | - |
| 1787660882 | 22.22° C | 77% | 1018.2 hPa | 0 mm | - | - | - |
| 1787660582 | 22.78° C | 78% | 1018.1 hPa | 0 mm | - | - | - |
| 1787660281 | 22.22° C | 80% | 1018.1 hPa | 0 mm | - | - | - |
| 1787659981 | 22.22° C | 81% | 1018.1 hPa | 0 mm | - | - | - |
| 1787659681 | 21.67° C | 81% | 1018 hPa | 0 mm | - | - | - |
| 1787659381 | 21.11° C | 80% | 1017.9 hPa | 0 mm | - | - | - |
| 1787659081 | 20.56° C | 82% | 1017.7 hPa | 0 mm | - | - | - |
| 1787658781 | 20.56° C | 82% | 1017.7 hPa | 0 mm | - | - | - |
| 1787658481 | 20.56° C | 83% | 1017.6 hPa | 0 mm | - | - | - |
| 1787658180 | 20° C | 84% | 1017.6 hPa | 0 mm | - | - | - |
| 1787657880 | 19.44° C | 83% | 1017.5 hPa | 0 mm | - | - | - |
| 1787657580 | 19.44° C | 85% | 1017.5 hPa | 0 mm | - | - | - |
| 1787657280 | 18.89° C | 86% | 1017.5 hPa | 0 mm | - | - | - |
| 1787656980 | 18.33° C | 89% | 1017.5 hPa | 0 mm | - | - | - |
| 1787656680 | 17.78° C | 90% | 1017.5 hPa | 0 mm | - | - | - |
| 1787656379 | 17.22° C | 90% | 1017.6 hPa | 0 mm | - | - | - |
| 1787656079 | 17.22° C | 90% | 1017.6 hPa | 0 mm | - | - | - |
* Rain latest hour (hover to see other rain measurements)
** Current wind speed in m/s (hover to see current wind gust speed)